[[{"header":{"parameterUnit":"m.s-1","parameterCategory":1,"la1":30.2991,"la2":30.254,"lo1":-89.0895,"lo2":-89.0444,"dy":0.0017,"dx":0.0017,"nx":28,"ny":28,"refTime":"2024-04-06T21:00:00:Z","depth":0,"parameterNumber":2,"parameterNumberName":"U-component_of_WINDS"},"data":[0,0,0,0,0,0,0,0,0,0,0,0,0,0,0,0,0,0,0,0,0,0,0,0,0,0,0,0,0,0,0,0,0,0,0,0,0,0,0,0,0,0,0,0,0,0,0,0,0,0,0,0,0,0,0,0,0,0,-2.6073,-2.6072,0,-2.602,-2.6019,-2.6018,-2.5929,-2.5927,-2.5925,-2.5924,-2.587,-2.587,-2.587,0,0,0,0,0,0,0,0,0,0,0,0,0,-2.6099,-2.6099,-2.6073,-2.6072,-2.6072,-2.602,-2.6019,-2.6018,-2.5929,-2.5927,-2.5925,-2.5923,-2.587,-2.587,-2.587,0,0,0,0,0,0,0,0,0,0,0,0,0,-2.6071,-2.6099,-2.6073,-2.6021,-2.6016,-2.602,-2.6019,-2.6018,-2.5929,-2.5927,-2.5924,-2.5922,-2.587,-2.587,-2.587,-2.5921,0,0,-2.587,-2.587,0,0,0,0,0,0,0,0,-2.6073,-2.607,-2.6029,-2.6025,-2.6019,-2.5978,-2.6008,-2.5986,-2.593,-2.5962,-2.5924,-2.5921,-2.5908,-2.5905,-2.59,-2.5918,-2.5916,-2.587,-2.587,-2.5871,-2.5871,0,0,0,0,0,0,0,-2.6075,-2.6072,-2.6052,-2.6029,-2.6022,-2.6,-2.5994,-2.6003,-2.595,-2.5959,-2.5953,-2.5947,-2.5904,-2.59,-2.5898,-2.5915,-2.587,-2.5871,-2.5871,-2.5871,-2.5973,-2.5975,0,0,0,0,0,0,-2.6084,-2.6074,-2.6054,-2.605,-2.604,-2.6002,-2.5994,-2.5994,-2.5949,-2.594,-2.595,-2.5943,-2.5901,-2.5898,-2.5896,-2.5952,-2.5871,-2.5871,-2.5871,-2.597,-2.5973,-2.5976,0,0,0,0,0,0,-2.6085,-2.6083,-2.6056,-2.606,-2.6055,-2.6004,-2.6004,-2.5994,-2.599,-2.5942,-2.5932,-2.5955,-2.5899,-2.5896,-2.5915,-2.5949,-2.5871,-2.5871,-2.5967,-2.5971,-2.5975,-2.6066,0,0,0,0,0,0,-2.6086,-2.6084,-2.6103,-2.6061,-2.6055,-2.6076,-2.6006,-2.5995,-2.599,-2.5982,-2.5945,-2.5936,-2.5897,-2.5916,-2.5916,-2.5948,-2.5871,-2.5964,-2.5969,-2.5973,-2.6059,-2.6072,-2.6083,0,0,0,0,0,-2.6087,-2.613,-2.6104,-2.6102,-2.6077,-2.6078,-2.6075,-2.6028,-2.5993,-2.6012,-2.5981,-2.5937,-2.5946,-2.5918,-2.5917,-2.595,-2.5961,-2.5967,-2.5973,-2.6054,-2.607,-2.6083,0,0,0,0,0,0,-2.6177,-2.6124,-2.6094,-2.6125,-2.6107,-2.6063,-2.6084,-2.6047,-2.6038,-2.603,-2.5974,-2.5966,-2.5993,-2.5974,-2.5944,-2.5998,-2.5947,-2.5953,-2.6009,-2.6023,-2.6035,-2.6038,-2.5871,0,0,0,0,0,-2.62,-2.6205,-2.6159,-2.6191,-2.6183,-2.6136,-2.6134,-2.6101,-2.6079,-2.6071,-2.6042,-2.6023,-2.6021,-2.6021,-2.6017,-2.6057,-2.6047,-2.6079,-2.6091,-2.6101,-2.6107,-2.6126,-2.6139,-2.5995,-2.5995,-2.5995,0,0,-2.6249,-2.622,-2.6227,-2.6208,-2.619,-2.6196,-2.613,-2.6139,-2.6143,-2.6072,-2.6089,-2.6067,-2.6043,-2.6072,-2.6084,-2.6057,-2.6145,-2.6109,-2.6117,-2.6117,-2.6133,-2.6147,-2.6159,-2.5999,-2.5998,-2.5998,0,0,-2.6339,-2.6319,-2.6343,-2.6326,-2.6299,-2.6268,-2.6274,-2.6236,-2.6219,-2.6235,-2.6181,-2.6186,-2.6184,-2.6169,-2.6161,-2.6247,-2.6206,-2.6248,-2.6309,-2.6329,-2.634,-2.635,-2.638,-2.6391,-2.6254,-2.6254,-2.6254,0,-2.6403,-2.641,-2.636,-2.6373,-2.6366,-2.6303,-2.6327,-2.6313,-2.6287,-2.6284,-2.6255,-2.6251,-2.623,-2.6255,-2.6276,-2.6272,-2.6277,-2.6251,-2.6342,-2.6352,-2.636,-2.6388,-2.6399,-2.6259,-2.6258,-2.6258,-2.6257,0,-2.6488,-2.6494,-2.6517,-2.6493,-2.6489,-2.6508,-2.6461,-2.6463,-2.6431,-2.6402,-2.6419,-2.6392,-2.6381,-2.6385,-2.6353,-2.6406,-2.639,-2.6353,-2.63,-2.638,-2.6405,-2.6415,-2.6266,-2.6264,-2.6263,-2.6262,0,0,-2.6633,-2.6582,-2.6591,-2.6579,-2.6545,-2.6549,-2.6565,-2.6554,-2.6557,-2.6542,-2.6553,-2.6554,-2.6519,-2.651,-2.6476,-2.6494,-2.6563,-2.6454,-2.6452,-2.6474,-2.6619,-2.6646,-2.6659,-2.6536,-2.6538,-2.654,-2.662,0,-2.6715,-2.6739,-2.6696,-2.673,-2.6734,-2.6675,-2.6689,-2.667,-2.6645,-2.6645,-2.6617,-2.6618,-2.6572,-2.6566,-2.6581,-2.6552,-2.6591,-2.6545,-2.6546,-2.6547,-2.6553,-2.6673,-2.6702,-2.6779,-2.663,-2.6632,-2.6633,0,-2.6815,-2.6804,-2.6839,-2.6803,-2.6804,-2.6817,-2.6804,-2.6805,-2.6783,-2.6763,-2.6754,-2.6714,-2.6727,-2.6678,-2.6695,-2.6665,-2.6663,-2.6649,-2.6651,-2.6648,-2.6594,-2.6672,-2.6802,-2.6814,-2.6648,-2.6647,-2.6646,0,-2.6915,-2.691,-2.6929,-2.6922,-2.6881,-2.6892,-2.6875,-2.685,-2.6847,-2.6836,-2.6833,-2.6824,-2.6819,-2.6813,-2.6772,-2.674,-2.6794,-2.6741,-2.6777,-2.6779,-2.679,-2.679,-2.6921,-2.6792,-2.6792,-2.6791,-2.6791,0,-2.7012,-2.7035,-2.6974,-2.6986,-2.7011,-2.6961,-2.6987,-2.6965,-2.6943,-2.695,-2.6899,-2.6906,-2.6852,-2.6854,-2.6822,-2.6841,-2.6839,-2.6823,-2.6814,-2.6827,-2.6829,-2.6824,-2.6817,-2.6794,-2.6794,-2.6793,-2.6793,0,-2.7128,-2.7088,-2.7105,-2.7066,-2.7056,-2.7076,-2.7042,-2.7052,-2.7024,-2.7033,-2.7032,-2.6988,-2.6987,-2.6946,-2.6937,-2.6915,-2.6948,-2.6929,-2.6955,-2.6949,-2.6987,-2.6984,-2.7119,-2.7134,-2.6996,-2.6997,-2.6999,0,-2.7191,-2.7207,-2.717,-2.7171,-2.7157,-2.7159,-2.7155,-2.7107,-2.7105,-2.7082,-2.7094,-2.709,-2.7083,-2.7085,-2.7052,-2.7045,-2.7026,-2.7074,-2.7024,-2.7037,-2.7025,-2.7024,-2.7026,-2.7084,-2.7085,-2.7087,-2.7088,0,-2.7308,-2.7287,-2.7283,-2.7273,-2.727,-2.726,-2.7246,-2.725,-2.7198,-2.7199,-2.7198,-2.7193,-2.7184,-2.718,-2.7167,-2.715,-2.711,-2.7104,-2.7112,-2.7125,-2.7138,-2.7131,-2.6982,-2.7101,-2.71,-2.7099,-2.7098,-2.7097,-2.7398,-2.741,-2.7385,-2.7383,-2.7368,-2.7357,-2.7364,-2.7337,-2.7335,-2.7323,-2.7296,-2.7299,-2.7277,-2.7255,-2.7242,-2.7244,-2.722,-2.7231,-2.7234,-2.7237,-2.7244,-2.7139,-2.7241,-2.7241,-2.7241,-2.724,-2.724,0,-2.7511,-2.7493,-2.7491,-2.7474,-2.7472,-2.7436,-2.7419,-2.742,-2.7424,-2.7406,-2.7401,-2.74,-2.7396,-2.7363,-2.7355,-2.7363,-2.7345,-2.7363,-2.7361,-2.7358,-2.7267,-2.726,-2.7378,-2.7378,-2.7378,-2.7378,-2.7378,-2.7378,-2.757,-2.7588,-2.7565,-2.7575,-2.7556,-2.7559,-2.7552,-2.7542,-2.7527,-2.7528,-2.7525,-2.7503,-2.748,-2.747,-2.7465,-2.7455,-2.7454,-2.7478,-2.7463,-2.7378,-2.7364,-2.7352,-2.7345,-2.7479,-2.7479,-2.7553,-2.7554,-2.7554]},{"header":{"parameterUnit":"m.s-1","parameterCategory":1,"la1":30.2991,"la2":30.254,"lo1":-89.0895,"lo2":-89.0444,"dy":0.0017,"dx":0.0017,"nx":28,"ny":28,"refTime":"2024-04-06T21:00:00:Z","depth":0,"parameterNumber":3,"parameterNumberName":"V-component_of_WINDS"},"data":[0,0,0,0,0,0,0,0,0,0,0,0,0,0,0,0,0,0,0,0,0,0,0,0,0,0,0,0,0,0,0,0,0,0,0,0,0,0,0,0,0,0,0,0,0,0,0,0,0,0,0,0,0,0,0,0,0,0,2.282,2.282,0,2.2845,2.2846,2.2846,2.2863,2.2863,2.2863,2.2863,2.2888,2.2888,2.2889,0,0,0,0,0,0,0,0,0,0,0,0,0,2.2783,2.2783,2.2819,2.282,2.282,2.2845,2.2846,2.2846,2.2863,2.2863,2.2863,2.2863,2.2887,2.2888,2.2889,0,0,0,0,0,0,0,0,0,0,0,0,0,2.2803,2.2784,2.2819,2.2832,2.2833,2.2845,2.2846,2.2846,2.2863,2.2863,2.2863,2.2863,2.2887,2.2888,2.2889,2.289,0,0,2.2891,2.2892,0,0,0,0,0,0,0,0,2.2802,2.2804,2.283,2.2831,2.2832,2.2851,2.2842,2.2861,2.2863,2.2851,2.2863,2.2863,2.2875,2.2877,2.2881,2.2891,2.2892,2.2891,2.2892,2.2892,2.2892,0,0,0,0,0,0,0,2.28,2.2803,2.283,2.283,2.2832,2.2835,2.2838,2.2845,2.2862,2.2852,2.2854,2.2857,2.2876,2.2881,2.2882,2.2893,2.2891,2.2892,2.2892,2.2893,2.2906,2.2906,0,0,0,0,0,0,2.2797,2.2802,2.2829,2.283,2.2817,2.2836,2.2839,2.2845,2.2862,2.2865,2.2857,2.2857,2.2879,2.2881,2.2883,2.2886,2.2892,2.2893,2.2893,2.2906,2.2906,2.2906,0,0,0,0,0,0,2.2796,2.2799,2.2828,2.2817,2.282,2.2836,2.2843,2.2845,2.285,2.2865,2.2868,2.2858,2.2879,2.2882,2.2889,2.2887,2.2893,2.2894,2.2906,2.2906,2.2906,2.2892,0,0,0,0,0,0,2.2795,2.2799,2.28,2.2816,2.2821,2.2833,2.2842,2.2846,2.2852,2.2853,2.2867,2.287,2.288,2.2887,2.2889,2.2888,2.2895,2.2906,2.2906,2.2906,2.2893,2.2892,2.2891,0,0,0,0,0,2.2794,2.2795,2.28,2.2803,2.2823,2.2833,2.2836,2.2848,2.2851,2.2852,2.2862,2.287,2.2887,2.2888,2.289,2.289,2.2906,2.2906,2.2906,2.2893,2.2892,2.2891,0,0,0,0,0,0,2.2777,2.2797,2.2803,2.281,2.282,2.2836,2.2838,2.2845,2.2854,2.2855,2.2868,2.2872,2.2877,2.2884,2.2884,2.2892,2.2898,2.2898,2.2887,2.2886,2.2885,2.2883,2.2895,0,0,0,0,0,2.2774,2.2781,2.2798,2.2802,2.2807,2.2822,2.2827,2.2835,2.2846,2.285,2.286,2.287,2.2877,2.2882,2.289,2.2894,2.2897,2.2895,2.2894,2.2893,2.2892,2.2895,2.2894,2.2905,2.2905,2.2905,0,0,2.2768,2.278,2.2783,2.2799,2.2808,2.2815,2.2825,2.2832,2.2837,2.2851,2.2858,2.2866,2.2877,2.2883,2.2886,2.2889,2.2891,2.2892,2.2891,2.2892,2.2895,2.2894,2.2893,2.2904,2.2904,2.2904,0,0,2.276,2.277,2.2775,2.2784,2.2797,2.2807,2.2808,2.2824,2.283,2.2837,2.2848,2.2854,2.2867,2.2875,2.2881,2.2877,2.2884,2.2879,2.2873,2.2875,2.2875,2.2874,2.2873,2.2872,2.2879,2.2879,2.2879,0,2.275,2.2762,2.2776,2.2782,2.2789,2.2803,2.2807,2.2815,2.283,2.2834,2.2837,2.2855,2.2863,2.2871,2.287,2.2874,2.2876,2.2877,2.2874,2.2873,2.2873,2.2872,2.2871,2.2878,2.2878,2.2878,2.2878,0,2.275,2.2758,2.276,2.2775,2.2782,2.2787,2.2801,2.2807,2.2814,2.2824,2.2831,2.2842,2.2853,2.2855,2.2863,2.2864,2.2866,2.2871,2.2877,2.2871,2.287,2.287,2.2877,2.2877,2.2878,2.2878,0,0,2.2732,2.2755,2.2756,2.2763,2.278,2.2786,2.2792,2.2803,2.2807,2.2817,2.2822,2.2834,2.2839,2.2845,2.2854,2.2856,2.2853,2.2861,2.2862,2.2859,2.2855,2.2851,2.285,2.2858,2.2858,2.2858,2.2854,0,2.2727,2.2739,2.2752,2.2759,2.2767,2.278,2.2785,2.2796,2.2805,2.2812,2.2821,2.2829,2.2836,2.284,2.2843,2.2852,2.2852,2.2853,2.2862,2.2862,2.2859,2.285,2.2845,2.2841,2.2854,2.2854,2.2854,0,2.2722,2.2733,2.2741,2.2758,2.2761,2.2766,2.2778,2.2784,2.2796,2.2803,2.281,2.2819,2.2826,2.2831,2.284,2.2841,2.2845,2.2851,2.2851,2.2852,2.2858,2.285,2.284,2.284,2.2853,2.2853,2.2853,0,2.2708,2.2724,2.2732,2.2738,2.2757,2.276,2.2768,2.278,2.2786,2.2796,2.28,2.281,2.2816,2.2823,2.2835,2.2838,2.2843,2.2849,2.2848,2.2847,2.2848,2.2848,2.2838,2.2851,2.2851,2.2851,2.2851,0,2.2701,2.2706,2.2726,2.2731,2.2736,2.2751,2.2756,2.2765,2.2776,2.2782,2.2794,2.2799,2.2814,2.2821,2.283,2.2836,2.2839,2.2844,2.2846,2.2843,2.2842,2.2846,2.2846,2.2851,2.2851,2.2851,2.2851,0,2.2686,2.27,2.2709,2.2727,2.2731,2.2735,2.275,2.2754,2.2764,2.2772,2.2775,2.279,2.2799,2.2811,2.2824,2.283,2.2835,2.2838,2.2831,2.2832,2.283,2.283,2.2823,2.2823,2.2835,2.2835,2.2835,0,2.2681,2.2685,2.2704,2.2709,2.2717,2.2725,2.2732,2.2746,2.2753,2.2767,2.277,2.278,2.2789,2.2802,2.2814,2.2824,2.2828,2.2825,2.2829,2.2826,2.2828,2.2827,2.2828,2.2823,2.2823,2.2823,2.2823,0,2.267,2.2676,2.2686,2.2698,2.2706,2.2716,2.2726,2.273,2.2746,2.2753,2.2762,2.2769,2.2783,2.2793,2.2804,2.2811,2.282,2.2821,2.2822,2.2818,2.2814,2.2816,2.2828,2.2821,2.2821,2.2821,2.2822,2.2822,2.2659,2.2664,2.2678,2.2688,2.2698,2.2707,2.2713,2.2724,2.2733,2.2745,2.2753,2.2762,2.2774,2.2791,2.2798,2.2805,2.2809,2.2809,2.2809,2.2809,2.2808,2.2813,2.2807,2.2807,2.2808,2.2808,2.2808,0,2.2649,2.2659,2.2668,2.2683,2.2691,2.2699,2.2711,2.2717,2.2726,2.2737,2.2745,2.2757,2.2767,2.2779,2.279,2.2793,2.2797,2.2795,2.2795,2.2797,2.2804,2.2803,2.2792,2.2792,2.2792,2.2792,2.2792,2.2792,2.2644,2.2653,2.2661,2.2674,2.2684,2.2694,2.27,2.2709,2.2718,2.2731,2.2739,2.2748,2.2759,2.2771,2.278,2.2783,2.2787,2.2784,2.2788,2.2795,2.2796,2.2798,2.2796,2.2784,2.2784,2.278,2.278,2.278]}]]